CZ-3B DEB, 40842

Orbit data source: Space-Track

CZ-3B DEB, 40842 is space debris in HEO originally from a launch on Mon, 19 Dec 2011 UTC launched from the Xichang Space Center, China (XSC). Debris objects in space refer to the collection of defunct objects orbiting the Earth. Examples of debris include non-operational satellites, rocket bodies, and fragments generated from explosions, collisions, or faulty payload assembly.

Not visible in the next 10 days
Identifier
40842, 2011-077X
Orbit
HEO
Country
Flag of CNCN / PRC
Related business
Manufacturer
CALT
Mission
Spacecraft
Bus & Motor
Unknown
Mass
Unknown
Launch date (UTC)
2011-12-19 (15 years ago)
Launch vehicle
Unknown
Launch site
Xichang Space Center, China (XSC)
Object type
Payload
Rocket body
Debris
Shape & HBR
Unknown shape, 0.2 m
Radar Cross Section
Medium (>0.1 m² and <1 m²)

Expand to show TLE details & history
Last TLE update: 19 hours ago

TLE from 19 hours ago
0 CZ-3B DEB
1 40842U 11077X   26262.95969535 -.00000423  00000-0 -59671-2 0  9994
2 40842  22.8585   8.8438 7559703 136.9025 316.8086  1.76814631 81865
Epoch: 2026-09-19T23:01Z
TLE epoch observation values (Epoch: 2026-09-19T23:01:57.678Z)
Latitude
0.00004°
Longitude
24.48916°
Altitude
21,245.347 km
Speed
3.881 km/s
True Right ascension
00h 35m 21s
True Declination
0° 00' 00"
Sunlit
Object was in full shadow at epoch
Visualization orbit readout
Latitude
Unknown
Longitude
Unknown
Altitude
Unknown
Speed
Unknown
Apparent Right ascension
Unknown
Apparent Declination
Unknown
Sunlit
N/A
Visualization observer readout
Local Sidereal Time
10:57:53
Azimuth
Unknown
Elevation
Unknown
Doppler factor
Unknown
Orbital elements
Apogee altitude
44,356.399 km
Perigee altitude
672.514 km
Semi-major axis
28,892.593 km
Eccentricity
0.75597
Inclination
22.8585°
RAAN
8.8438°
Arg. of periapsis
136.9025°
True anomaly
223.28983°
Mean anomaly
316.8086°
Eccentric anomaly
273.57918°
Mean motion
0.44194 °/min
Orbital period
814.59 mins
BSTAR
-0.0059671
Loading maneuver chart data...
Computing Atmospheric mass density...
Loading historical data...
Loading historical data...
Loading historical data...
Loading historical data...
Loading historical data...
Loading historical data...
Loading historical data...

Documentation

Showing up to 5 results
|